This demonstration page uses our WeatherBlox Daily Observations layout. Learn more.

Left ArrowRight Arrow

38.20091, -84.87328

Hourly Observations for August 19, 2021

Temp ( °F °C ) Dew Point ( °F °C ) Humidity (%) Winds ( mph kmh ) Pressure ( in mb ) Visibility ( mi km ) Precip ( " mm )
12:53 am 00:53 Clear 75 23.9 73 22.8 94 94 WSW 3 6 30.10 1019 10 16 0.00 0.00
1:53 am 01:53 Clear with Light Rain 75 23.9 73 22.8 94 94 SSE 3 6 30.09 1019 10 16 0.00 0.00
2:53 am 02:53 Mostly Cloudy 74 23.3 73 22.8 97 97 Calm 30.09 1019 10 16 0.00 0.00
3:53 am 03:53 Mostly Cloudy 74 23.3 73 22.8 97 97 Calm 30.09 1019 10 16 0.00 0.00
4:53 am 04:53 Cloudy 74 23.3 73 22.8 97 97 Calm 30.08 1019 10 16 0.01 0.25
5:04 am 05:04 Cloudy 74 23.3 73 22.8 97 97 S 3 6 30.08 1019 10 16 0.00 0.00
5:13 am 05:13 Cloudy with Light Rain 74 23.3 73 22.8 97 97 SSE 5 7 30.08 1019 8 13 0.00 0.00
5:29 am 05:29 Cloudy with Light Rain 74 23.3 73 22.8 97 97 NE 3 6 30.07 1018 4 6 0.03 0.76
5:53 am 05:53 Cloudy with Light Rain 74 23.3 73 22.8 97 97 SSW 3 6 30.08 1019 6 10 0.04 1.02
6:08 am 06:08 Cloudy with Light Rain 74 23.3 73 22.8 97 97 Calm 30.07 1018 5 8 0.02 0.51
6:13 am 06:13 Cloudy with Heavy Rain 74 23.3 73 22.8 97 97 SSW 6 9 30.08 1019 2 3 0.09 2.29
6:26 am 06:26 Cloudy with Heavy Rain 73 22.8 72 22.2 96 96 ESE 5 7 30.07 1018 1 2 0.30 7.62
6:34 am 06:34 Cloudy with Heavy Rain 73 22.8 72 22.2 96 96 E 7 11 30.07 1018 1 2 0.53 13.46
6:37 am 06:37 Cloudy with Heavy Rain 73 22.8 72 22.2 96 96 E 8 13 30.07 1018 1 2 0.60 15.24
6:44 am 06:44 Cloudy with Heavy Rain 72 22.2 71 21.7 97 97 ESE 9 15 30.07 1018 1 2 0.76 19.30
6:53 am 06:53 Cloudy with Heavy Rain 72 22.2 71 21.7 97 97 SE 7 11 30.09 1019 2 3 0.87 22.10
7:05 am 07:05 Cloudy with Heavy Rain 72 22.2 71 21.7 97 97 SE 6 9 30.09 1019 1 1 0.44 11.18
7:15 am 07:15 Cloudy with Heavy Rain 72 22.2 71 21.7 97 97 ENE 6 9 30.08 1019 1 1 0.86 21.84
7:21 am 07:21 Cloudy with Heavy Rain 72 22.2 71 21.7 97 97 E 7 11 30.08 1019 1 2 1.04 26.42
7:33 am 07:33 Cloudy with Heavy Rain 71 21.7 70 21.1 96 96 E 5 7 30.08 1018 2 3 1.21 30.73
7:44 am 07:44 Cloudy with Heavy Rain 71 21.7 70 21.1 96 96 Calm 30.09 1019 3 4 1.27 32.26
7:53 am 07:53 Cloudy with Heavy Rain 71 21.7 70 21.1 96 96 Calm 30.09 1019 1 2 1.38 35.05
8:10 am 08:10 Cloudy with Heavy Rain 71 21.7 70 21.1 96 96 Calm 30.10 1019 2 2 0.17 4.32
8:14 am 08:14 Cloudy with Heavy Rain 71 21.7 70 21.1 96 96 WSW 3 6 30.11 1020 2 2 0.20 5.08
8:21 am 08:21 Cloudy with Heavy Rain 71 21.7 70 21.1 96 96 Calm 30.11 1020 1 1 0.36 9.14
8:34 am 08:34 Cloudy with Heavy Rain 71 21.7 70 21.1 96 96 N 5 7 30.10 1019 1 1 0.75 19.05
8:49 am 08:49 Cloudy with Heavy Rain 72 22 70 21 94 94 VRB 6 9 30.11 1019 1 2 0.97 24.64
8:53 am 08:53 Cloudy with Heavy Rain 70 21.1 69 20.6 97 97 NNW 5 7 30.11 1020 2 2 1.01 25.65
9:09 am 09:09 Cloudy with Heavy Rain 70 21.1 70 21.1 100 100 NNW 3 6 30.11 1020 1 2 0.11 2.79
9:11 am 09:11 Cloudy with Heavy Rain 71 21.7 70 21.1 96 96 Calm 30.11 1020 1 2 0.12 3.05
9:18 am 09:18 Cloudy with Heavy Rain 70 21.1 70 21.1 100 100 NW 5 7 30.11 1020 1 2 0.17 4.32
9:26 am 09:26 Cloudy with Rain 70 21.1 70 21.1 100 100 Calm 30.11 1020 1 2 0.21 5.33
9:31 am 09:31 Cloudy with Heavy Rain 71 21.7 70 21.1 96 96 Calm 30.11 1020 1 2 0.24 6.10
9:35 am 09:35 Cloudy with Rain 70 21.1 70 21.1 100 100 NW 3 6 30.11 1020 1 2 0.26 6.60
9:48 am 09:48 Cloudy with Rain 72 22 70 21 94 94 Calm 30.11 1019 2 3 0.29 7.37
9:53 am 09:53 Cloudy with Rain 71 21.7 70 21.1 96 96 NW 3 6 30.10 1019 2 3 0.30 7.62
9:56 am 09:56 Cloudy with Rain 71 21.7 70 21.1 96 96 NW 3 6 30.10 1019 2 3 0.02 0.51
10:18 am 10:18 Cloudy with Rain 71 21.7 70 21.1 96 96 NW 5 7 30.11 1020 2 3 0.10 2.54
10:20 am 10:20 Cloudy with Heavy Rain 71 21.7 70 21.1 96 96 WNW 3 6 30.11 1020 2 3 0.12 3.05
10:25 am 10:25 Cloudy with Heavy Rain 71 21.7 70 21.1 96 96 Calm 30.11 1020 1 1 0.17 4.32
10:43 am 10:43 Cloudy with Heavy Rain 71 21.7 71 21.7 100 100 Calm 30.10 1019 1 2 0.34 8.64
10:51 am 10:51 Cloudy with Rain 72 22 72 22 100 100 ENE 5 7 30.10 1019 3 5 0.35 8.89
10:53 am 10:53 Cloudy with Light Rain 72 22.2 71 21.7 97 97 ENE 5 7 30.10 1019 4 6 0.35 8.89
11:09 am 11:09 Cloudy 72 22.2 71 21.7 97 97 NE 5 7 30.09 1019 10 16 0.01 0.25
11:27 am 11:27 Cloudy 73 22.8 71 21.7 94 94 NNE 3 6 30.09 1019 10 16 0.01 0.25
11:51 am 11:51 Cloudy 75 24 72 22 89 89 VRB 5 7 30.09 1019 10 16 0.01 0.25
11:53 am 11:53 Cloudy 75 23.9 72 22.2 90 90 NE 5 7 30.10 1019 10 16 0.01 0.25
12:30 pm 12:30 Cloudy 77 25 71 21.7 82 82 Calm 30.09 1019 10 16 0.00 0.00
12:53 pm 12:53 Cloudy 77 25 71 21.7 82 82 Calm 30.09 1019 10 16 0.00 0.00
1:53 pm 13:53 Cloudy 78 25.6 71 21.7 79 79 E 3 6 30.09 1019 10 16 0.00 0.00
2:53 pm 14:53 Mostly Sunny 82 27.8 71 21.7 69 69 VRB 5 7 30.06 1018 10 16 0.00 0.00
3:38 pm 15:38 Mostly Cloudy 81 27.2 71 21.7 72 72 VRB 3 6 30.03 1017 10 16 0.00 0.00
3:53 pm 15:53 Partly Cloudy 82 27.8 72 22.2 72 72 S 5 7 30.04 1017 10 16 0.00 0.00
4:02 pm 16:02 Mostly Cloudy 82 27.8 71 21.7 69 69 E 5 7 30.03 1017 10 16 0.00 0.00
4:22 pm 16:22 Partly Cloudy 83 28.3 71 21.7 67 67 ESE 3 6 30.02 1017 10 16 0.00 0.00
4:53 pm 16:53 Partly Cloudy 83 28.3 70 21.1 65 65 VRB 6 9 30.02 1017 10 16 0.00 0.00
5:53 pm 17:53 Partly Cloudy 83 28.3 71 21.7 67 67 ESE 5 7 30.01 1016 10 16 0.00 0.00
6:53 pm 18:53 Mostly Sunny 82 27.8 70 21.1 67 67 SE 3 6 30.01 1016 10 16 0.00 0.00
7:53 pm 19:53 Sunny 81 27.2 69 20.6 67 67 Calm 30.01 1016 10 16 0.00 0.00
8:53 pm 20:53 Clear 75 23.9 72 22.2 90 90 Calm 30.01 1016 10 16 0.00 0.00
9:53 pm 21:53 Clear 74 23.3 71 21.7 91 91 Calm 30.03 1017 10 16 0.00 0.00
10:53 pm 22:53 Clear 71 21.7 70 21.1 96 96 Calm 30.04 1017 10 16 0.00 0.00
11:53 pm 23:53 Clear 69 20.6 68 20 96 96 SSW 3 6 30.02 1017 10 16 0.00 0.00

Powered by AerisWeather